Kosmos-2522

operational
NORAD ID: 42939 Int'l Des: 2017-055 Owner: VVKOV/IACG Country: RU Constellation: GLONASS
MEOCIRCULAR

Über Kosmos-2522

Beschreibung wird geladen...

Live-Position

3D-Globus wird geladen...

Nächste Überflüge

Höhenverlauf

Altitude vs Time

uPlot chart will show altitude changes over time

Zweizeiliger Elementsatz

1 42939U 17055A 26034.38405934 .00000034 00000-0 00000+0 0 9992
2 42939 64.0792 196.4352 0006488 223.3014 136.6164 2.13101651 65129
Epoch: 3. Feb. 2026 • Age: 10 hours

Aktueller Status

Höhe 19143.2 km
Geschwindigkeit 3.95 km/s
Subsatellitenpunkt -31.81°S, 114.54°E
Startdatum 22. Sept. 2017
Alter 8.3 years
Typ other

Technische Details

Klassifizierung Payload
Masse 1450.00 kg
Trockenmasse 1200.00 kg
Gesamtmasse 1450.00 kg
Länge 4.00 m
Durchmesser 1.50 m
Spannweite 7.80 m
Form Cyl + Ant + 2 Pan
Hersteller RESH
Bus-Typ Uragan
Phasenstatus In Orbit
Besitzer/Staat VVKOV/IACG/RU

Große Konstellationen

Loading constellations...